This is the latest recevied weather packets stored in our database for station/object NC4M. If no packets are shown the sender has not sent any weather packets the latest 10 day(s).
| Time | Temp. | Humidity | Pressure | Rain* | Wind** | Luminosity | Snow |
|---|---|---|---|---|---|---|---|
| 1787681732 | 31.11° C | 55% | 1017.3 hPa | 0 mm | - | 854 W/m² | - |
| 1787681427 | 31.67° C | 54% | 1017.4 hPa | 0 mm | - | 848 W/m² | - |
| 1787681127 | 31.67° C | 56% | 1017.5 hPa | 0 mm | - | 846 W/m² | - |
| 1787680822 | 31.67° C | 55% | 1017.5 hPa | 0 mm | - | 842 W/m² | - |
| 1787680517 | 31.67° C | 55% | 1017.7 hPa | 0 mm | - | 845 W/m² | - |
| 1787680215 | 31.67° C | 54% | 1017.5 hPa | 0 mm | - | 849 W/m² | - |
| 1787679909 | 31.67° C | 54% | 1017.4 hPa | 0 mm | - | 849 W/m² | - |
| 1787679609 | 31.67° C | 54% | 1017.4 hPa | 0 mm | - | 847 W/m² | - |
| 1787679305 | 31.67° C | 56% | 1017.6 hPa | 0 mm | - | 841 W/m² | - |
| 1787679001 | 31.11° C | 57% | 1017.5 hPa | 0 mm | - | 840 W/m² | - |
| 1787678701 | 31.11° C | 52% | 1017.5 hPa | 0 mm | - | 837 W/m² | - |
| 1787678395 | 30.56° C | 58% | 1017.3 hPa | 0 mm | - | 830 W/m² | - |
| 1787678090 | 31.11° C | 54% | 1017.6 hPa | 0 mm | - | 823 W/m² | - |
| 1787677790 | 30.56° C | 53% | 1017.6 hPa | 0 mm | - | 817 W/m² | - |
| 1787677485 | 30.56° C | 53% | 1017.7 hPa | 0 mm | - | 813 W/m² | - |
| 1787676878 | 31.11° C | 57% | 1017.9 hPa | 0 mm | - | 790 W/m² | - |
| 1787676578 | 30.56° C | 57% | 1018.1 hPa | 0 mm | - | 777 W/m² | - |
| 1787676276 | 30° C | 56% | 1018 hPa | 0 mm | - | 772 W/m² | - |
| 1787675971 | 30° C | 55% | 1018.1 hPa | 0 mm | - | 757 W/m² | - |
| 1787675667 | 30° C | 58% | 1018.4 hPa | 0 mm | - | 734 W/m² | - |
| 1787675366 | 29.44° C | 57% | 1018.3 hPa | 0 mm | - | 734 W/m² | - |
| 1787675066 | 29.44° C | 56% | 1018.6 hPa | 0 mm | - | 696 W/m² | - |
| 1787674760 | 29.44° C | 60% | 1018.5 hPa | 0 mm | - | 713 W/m² | - |
| 1787674457 | 29.44° C | 58% | 1018.6 hPa | 0 mm | - | 698 W/m² | - |
| 1787674157 | 29.44° C | 60% | 1018.4 hPa | 0 mm | - | 646 W/m² | - |
* Rain latest hour (hover to see other rain measurements)
** Current wind speed in m/s (hover to see current wind gust speed)